Theta_e
299 299 298 298 297 297 297 299 299 299 299 299 297 297 297 296 295 294 291 291 291 291 290 290 289 289 289 289 289 288 288 288 287 286 285 284 284 284 283 283 282 282 282 281 281 281 281 281 280 280 281 281 281 281 281 281 281 282 282 282 281 280 278 277 276 275 276 278 278 279 279 279 278 278 278 278 278 279 281 278 278 278 278 278 279
298 298 298 298 297 297 297 297 297 295 295 296 295 294 294 294 294 292 290 289 290 290 290 289 289 288 288 288 288 288 288 288 286 285 284 283 283 284 283 282 281 281 281 280 280 280 280 279 278 278 279 280 280 280 280 280 280 281 280 280 280 280 279 278 276 275 274 276 278 278 278 278 276 276 277 277 277 277 278 278 278 278 278 278 278
298 298 297 296 296 296 295 295 294 293 293 293 293 293 293 293 292 291 290 289 288 289 289 288 288 288 287 287 287 287 287 287 286 284 283 283 283 282 282 281 281 280 280 280 279 279 278 278 278 279 280 279 279 280 280 279 280 279 279 278 278 278 278 278 276 275 274 274 275 275 277 277 277 276 277 278 278 278 277 277 277 278 279 279 278
298 297 297 295 294 293 294 293 293 293 292 292 292 292 292 291 290 291 290 289 288 288 288 288 288 287 287 286 286 286 286 286 285 283 283 282 282 282 281 280 280 280 279 279 279 279 278 277 278 279 279 279 279 279 279 279 279 279 278 278 277 276 276 277 277 275 274 274 275 276 275 276 276 276 277 277 277 277 277 277 277 277 278 279 279
297 297 295 293 293 293 293 292 293 293 293 293 292 291 291 290 289 290 289 288 288 287 287 287 287 287 286 286 285 285 285 285 284 282 282 282 282 281 280 280 279 279 279 279 280 278 278 278 278 278 279 278 278 279 279 279 278 278 278 276 277 276 277 277 276 276 274 275 275 276 276 275 274 275 276 276 275 276 276 276 276 277 277 278 279
296 295 294 293 293 293 293 292 292 293 293 293 292 291 290 289 289 289 289 288 287 287 287 287 287 287 286 286 285 285 284 284 283 282 281 281 280 280 280 280 279 279 278 278 278 278 278 278 278 278 279 279 279 279 279 279 278 278 277 277 277 277 276 276 275 275 275 275 275 275 275 276 275 275 275 275 275 275 275 275 275 276 276 276 277
294 294 294 294 293 293 293 293 293 292 292 292 291 290 289 289 288 288 288 288 287 286 286 286 286 286 286 285 285 284 283 283 283 281 280 280 280 280 280 279 279 278 278 278 277 278 278 278 278 278 279 280 280 280 279 278 278 277 277 277 277 277 276 276 276 275 275 275 275 274 274 274 275 275 275 276 276 276 275 275 274 275 276 276 275
293 293 293 293 293 293 293 293 292 292 292 291 290 289 288 288 288 288 287 287 287 286 286 286 286 286 285 285 285 284 282 282 282 281 280 280 280 280 280 279 278 278 277 277 278 278 278 279 279 279 280 281 281 281 280 278 278 277 278 278 277 276 276 276 276 276 275 274 274 273 273 274 274 276 276 275 275 274 275 275 274 274 275 275 275
293 292 292 293 293 293 292 292 291 291 291 290 289 288 288 287 286 287 286 287 287 286 286 286 285 285 284 284 284 283 282 282 282 281 280 280 280 280 280 279 278 277 277 278 278 278 279 279 280 281 282 283 283 282 281 281 279 278 278 278 277 277 277 277 276 275 275 274 273 275 274 274 275 275 275 274 274 275 274 274 275 275 275 275 275
294 293 293 293 293 292 291 291 290 290 290 290 289 288 287 286 285 286 286 286 286 286 285 285 285 284 284 283 283 283 282 283 283 285 284 281 280 280 280 279 278 278 278 277 277 278 279 280 281 282 283 283 283 284 284 284 283 280 278 278 278 277 276 275 275 275 275 274 274 274 273 274 275 275 275 275 274 274 274 274 274 275 274 274 275
294 293 293 293 292 291 291 291 290 289 289 289 288 287 286 285 285 285 286 285 285 285 285 284 284 284 283 283 282 282 282 283 285 288 289 287 281 280 279 279 279 278 278 277 277 278 279 281 281 282 282 282 283 284 284 285 285 285 284 282 281 279 277 276 275 275 274 273 274 273 275 275 276 276 275 275 275 275 274 275 274 274 273 271 272
294 293 293 292 292 291 291 290 289 289 288 288 288 286 285 284 284 285 285 284 285 285 284 284 284 283 283 282 282 282 282 284 287 288 288 287 284 281 280 279 279 278 278 278 278 278 279 280 281 281 281 281 282 282 283 284 284 284 285 285 284 283 282 278 276 274 273 273 273 274 274 274 275 274 275 275 275 274 275 274 274 273 273 272 273
294 293 293 292 291 291 290 290 289 288 287 287 286 286 285 284 284 283 283 284 285 284 284 283 283 283 283 282 282 282 282 286 288 288 289 288 287 283 280 279 279 279 278 278 278 278 279 280 280 280 281 282 281 281 281 281 283 284 284 284 284 284 284 284 283 278 275 275 274 274 275 275 274 274 274 275 276 275 274 274 274 274 274 273 274
293 293 292 291 291 290 290 289 288 288 287 286 285 285 284 284 284 284 284 284 284 284 284 283 283 283 283 282 282 282 281 285 288 288 287 288 287 284 280 280 280 279 278 278 278 279 280 280 280 279 280 281 281 281 280 280 279 280 281 281 280 281 283 283 284 284 282 277 275 274 276 275 275 275 275 277 276 274 273 274 274 273 273 274 275
292 292 291 291 290 289 289 289 288 287 286 285 284 284 284 284 283 284 284 284 284 284 283 283 283 283 283 283 282 281 281 286 288 288 290 289 287 284 280 280 279 279 279 279 279 279 280 281 281 281 280 280 281 281 280 279 278 278 278 278 278 278 279 279 280 280 280 280 279 277 277 277 276 276 275 275 276 276 276 276 276 276 276 276 275
291 291 291 290 290 289 289 288 287 287 286 285 284 284 283 283 283 283 284 284 284 284 284 284 283 283 283 283 282 281 281 287 287 288 289 288 287 281 280 280 279 279 279 279 279 280 281 282 282 282 281 281 282 283 282 280 279 277 276 276 277 277 278 280 282 282 281 280 279 279 279 279 281 279 279 279 279 279 279 280 278 277 276 275 274
291 291 290 290 289 289 289 288 287 286 285 284 284 284 283 282 282 283 283 284 284 283 283 283 283 282 282 282 281 281 280 285 287 288 289 288 285 280 280 280 279 279 278 279 279 280 281 282 283 282 282 282 283 284 284 282 279 277 276 275 275 273 275 278 281 283 284 284 284 284 285 285 286 286 286 286 284 282 279 277 276 277 274 273 274
291 290 290 289 289 288 288 287 286 285 285 284 284 283 283 282 282 283 283 283 283 283 283 283 283 282 282 282 282 281 280 284 287 287 288 288 284 280 280 280 279 279 278 279 279 280 281 282 282 282 282 282 284 285 286 283 279 278 277 276 274 273 274 276 276 277 281 282 283 283 283 283 283 283 283 283 283 281 275 273 274 275 274 274 273
289 289 289 288 288 287 287 287 286 285 285 284 283 283 282 282 282 282 282 283 283 283 282 282 282 283 282 282 282 282 281 282 286 287 287 287 284 281 280 280 279 278 278 278 279 279 279 281 282 282 282 283 285 286 286 284 280 279 278 276 275 274 275 276 275 274 274 273 275 275 276 279 279 278 278 281 281 281 279 277 276 275 273 273 274
288 287 287 287 287 287 286 286 286 285 285 283 283 283 283 282 282 282 282 283 283 283 282 282 281 281 282 281 281 282 281 281 285 287 287 288 286 282 280 279 278 278 278 278 278 278 279 279 281 283 284 284 285 286 286 286 281 280 279 277 275 275 277 276 275 275 274 274 273 272 273 275 277 277 277 277 278 278 279 278 278 277 275 274 274
287 287 287 286 286 286 286 286 285 285 285 284 283 283 282 282 281 281 281 282 282 281 281 281 281 281 281 281 281 281 281 280 283 286 287 287 287 283 280 280 280 279 279 279 278 278 278 279 279 282 284 285 285 285 285 286 285 281 279 277 277 278 278 273 275 279 275 274 274 275 276 277 277 277 277 276 277 277 277 279 278 278 276 274 274
286 286 286 285 285 285 285 285 285 285 284 283 282 282 281 281 282 282 282 282 281 281 281 281 280 280 280 280 280 280 281 281 281 285 286 286 287 285 281 281 281 280 279 279 279 279 279 279 279 282 284 285 285 285 285 285 285 283 280 282 283 283 281 279 277 278 278 278 278 277 277 276 275 275 276 276 276 276 277 277 277 276 275 274 273
285 286 285 284 284 284 284 284 284 283 283 283 282 281 281 281 281 282 282 281 281 280 280 280 280 279 278 279 279 279 279 280 282 283 285 286 287 286 284 283 284 282 280 279 280 280 281 282 282 283 284 285 286 286 286 286 285 283 284 284 284 284 284 282 281 281 280 279 278 277 277 276 275 275 275 275 276 276 275 274 274 274 273 273 273
285 285 284 284 284 283 283 283 283 283 283 283 282 281 281 281 281 281 282 281 280 279 279 279 279 278 277 277 278 278 279 279 281 283 284 286 287 286 286 285 285 283 283 281 282 282 283 283 283 285 286 286 286 286 286 286 284 285 285 285 285 284 282 280 279 278 278 278 278 277 276 276 276 275 275 275 273 272 272 271 271 271 271 270 270
284 284 283 283 283 283 283 283 283 283 283 283 282 281 281 281 281 281 281 281 280 279 279 279 278 278 277 277 277 277 278 278 280 282 284 285 287 286 286 286 286 286 284 284 284 284 284 285 286 286 287 286 286 286 286 286 285 285 285 284 283 280 280 279 279 278 277 277 277 277 277 277 276 274 272 271 271 271 269 269 269 269 267 266 265
283 283 282 283 283 282 282 282 282 283 283 283 282 281 281 281 281 281 281 280 280 279 278 278 278 278 277 277 277 277 277 278 278 280 282 284 285 286 286 286 285 286 284 284 284 286 286 286 286 286 286 285 283 281 279 278 283 283 283 282 277 276 276 276 276 276 276 276 276 276 276 275 270 271 271 270 269 268 268 268 267 266 265 263 261
283 282 282 282 281 282 282 282 282 282 283 283 283 282 282 281 281 280 280 280 279 279 279 278 278 278 277 277 277 277 277 277 277 278 279 280 282 284 285 285 285 285 284 284 284 284 285 284 283 283 283 283 282 281 280 280 276 276 276 276 276 276 276 275 275 276 277 277 276 276 274 270 270 269 269 269 268 268 268 266 266 265 264 261 260
283 282 282 282 282 283 283 281 282 282 282 282 281 281 281 282 281 280 280 280 279 279 279 278 278 278 278 278 278 277 277 277 277 277 278 279 279 281 282 282 283 283 283 282 282 282 281 282 281 277 276 276 275 272 272 272 273 273 272 272 273 274 278 279 279 277 276 276 275 274 270 270 270 269 268 267 266 265 265 265 265 262 263 261 260
284 283 283 283 282 283 283 282 283 283 282 282 282 282 281 281 281 281 282 282 282 280 279 279 280 280 280 279 278 277 277 277 278 280 279 280 279 279 279 280 280 280 281 282 278 276 276 274 273 273 271 271 271 270 270 270 270 270 270 268 268 269 271 273 274 275 275 274 274 273 272 271 270 268 267 266 265 264 263 261 262 261 263 263 261
283 282 282 282 282 282 282 282 282 282 281 280 279 279 281 283 282 281 281 283 284 284 283 281 281 281 281 281 281 279 278 279 281 282 281 282 282 281 281 281 281 280 282 283 278 274 273 272 271 271 270 270 270 269 270 269 268 267 268 274 270 269 270 272 272 273 273 273 272 271 270 269 267 267 265 264 263 262 264 266 262 263 261 261 261
282 282 282 281 282 281 281 281 281 281 280 279 279 278 279 282 284 284 283 283 284 285 284 284 284 283 282 279 281 283 282 282 282 282 282 282 282 282 282 282 282 282 283 279 275 273 272 271 271 271 271 270 270 270 270 269 269 268 268 269 269 271 273 272 273 272 271 270 269 268 265 266 265 265 265 265 265 265 264 264 263 262 261 260 258
282 282 282 281 281 281 281 281 281 280 279 279 279 278 278 277 278 282 283 283 284 285 285 285 284 284 283 281 279 279 282 283 283 282 282 282 282 282 282 282 282 283 282 280 273 272 272 271 271 271 271 271 271 272 272 271 272 271 271 270 271 272 272 272 273 272 271 268 266 265 264 264 266 266 266 266 265 264 263 262 261 261 260 259 258
282 281 281 281 281 281 281 281 281 280 279 279 278 278 277 276 276 276 279 282 283 283 283 284 284 283 283 282 282 281 281 282 282 282 282 282 282 282 282 282 282 282 281 275 272 272 272 272 271 272 272 272 273 273 273 273 273 272 272 272 271 271 270 272 274 272 271 270 269 268 268 267 266 266 266 265 264 263 263 262 261 260 258 256 257
282 282 281 281 281 281 281 281 280 280 279 279 278 277 277 276 276 276 276 277 278 280 282 282 282 282 282 282 282 282 282 282 282 282 282 281 281 281 281 280 281 281 278 273 273 272 273 273 273 274 274 274 274 274 274 273 273 272 271 270 270 269 269 270 270 270 269 270 270 268 268 267 266 265 264 262 263 262 261 260 258 256 255 255 255
281 278 277 278 281 281 280 280 280 279 279 278 278 277 277 276 276 276 276 275 275 275 275 277 280 281 280 281 281 282 282 282 281 281 281 281 281 281 281 278 277 277 277 276 276 275 275 275 275 275 275 274 274 274 274 273 273 271 270 269 269 269 268 268 267 265 266 267 268 267 267 267 264 262 262 261 261 261 259 257 256 256 255 254 254
280 279 279 279 280 280 280 280 280 279 279 278 278 277 276 275 275 275 275 275 275 274 274 275 276 279 280 281 281 281 281 281 281 281 281 281 282 281 277 276 276 276 276 276 276 276 276 276 275 275 275 274 274 273 273 272 272 272 271 270 269 268 268 267 267 264 262 262 264 265 265 264 264 262 260 260 260 259 257 256 256 255 255 254 254
279 279 279 279 279 279 279 279 279 279 278 277 277 276 275 275 275 275 274 274 273 273 271 272 274 275 277 277 279 280 281 281 281 281 281 281 282 279 276 276 276 276 275 276 276 275 275 273 273 273 274 273 273 273 271 271 270 269 271 269 269 268 266 265 265 264 263 261 259 262 263 263 263 261 261 259 257 257 256 255 254 256 256 256 258
278 279 278 278 278 278 278 277 277 277 276 276 276 276 275 275 275 274 274 273 272 271 270 272 274 274 273 274 279 278 279 280 280 280 280 280 279 277 276 276 276 275 274 274 273 273 271 270 270 271 270 270 270 270 270 269 268 267 267 266 266 264 268 265 264 259 258 259 261 262 263 262 261 259 258 257 256 255 255 255 254 253 255 256 255
276 277 277 277 278 277 276 275 275 276 275 276 276 275 274 274 274 274 273 272 271 271 271 272 272 272 272 273 275 277 277 276 275 275 275 275 274 275 274 274 274 273 272 271 270 270 270 269 269 269 269 269 268 269 268 268 266 265 264 263 261 260 261 256 256 256 257 257 258 259 260 258 256 255 255 254 253 253 253 253 253 253 253 252 252
275 275 276 277 276 275 274 274 274 274 274 275 275 274 273 273 274 273 272 271 270 270 271 271 271 271 272 273 273 275 273 273 273 273 272 271 271 272 272 272 271 270 269 268 268 268 268 267 267 267 267 267 266 265 263 263 261 259 258 258 257 257 255 255 256 256 257 255 254 253 255 253 253 253 252 252 252 251 252 252 253 253 252 251 252
275 274 273 275 274 274 272 273 273 274 274 274 274 273 273 273 272 271 271 270 269 269 270 269 269 269 270 271 275 275 272 272 272 271 271 270 269 269 269 269 268 266 265 265 263 263 263 262 261 261 260 259 258 257 256 256 255 255 255 255 255 255 254 253 253 253 254 254 253 252 251 252 252 253 252 252 258 255 252 253 252 252 253 253 252
274 273 273 272 272 272 272 272 272 271 272 271 273 272 271 271 271 271 270 269 268 268 267 265 265 267 270 274 275 275 270 268 269 268 268 267 267 266 264 263 263 262 261 260 260 260 258 258 257 257 256 256 256 254 254 253 253 253 253 253 254 254 253 252 252 252 252 251 250 251 250 251 252 252 253 258 252 251 251 251 251 251 250 251 252
272 272 272 271 272 272 271 271 271 271 271 271 270 268 269 270 270 269 268 268 267 266 265 264 264 266 269 274 274 271 266 266 265 264 263 264 263 262 260 260 258 257 257 256 256 257 257 257 256 255 255 254 254 254 254 253 252 253 252 253 252 252 252 251 252 252 250 251 250 251 251 251 254 252 250 252 250 251 251 251 251 250 251 250 250
271 270 270 270 270 269 269 270 270 270 270 268 267 268 268 268 268 268 267 266 265 265 264 264 265 266 268 270 268 265 263 263 262 262 261 260 260 258 258 257 257 257 256 255 254 254 256 255 254 253 252 252 251 250 251 251 251 251 251 251 252 253 251 252 252 251 252 252 251 251 251 250 251 251 252 253 250 251 250 249 250 250 249 248 248
270 270 269 269 269 269 268 268 267 266 266 266 267 266 266 267 266 266 266 265 264 264 264 264 265 266 266 265 264 263 262 261 260 259 259 259 257 257 257 255 255 255 254 253 252 252 252 253 252 252 251 250 250 250 251 252 250 250 250 250 251 252 252 252 252 250 252 251 251 251 250 251 250 250 251 251 251 250 251 250 250 253 250 250 249
269 269 268 268 267 266 266 266 265 266 266 266 266 265 265 265 265 264 264 264 263 263 263 263 263 264 264 263 262 260 260 259 258 257 256 256 256 255 254 253 253 252 252 252 251 250 251 250 251 250 251 249 249 249 249 249 250 249 249 249 250 251 249 248 248 250 250 250 251 250 251 250 249 251 252 250 250 250 250 249 248 250 250 250 250
268 267 267 266 265 264 264 264 265 265 265 264 264 264 264 263 263 262 262 262 262 261 262 262 262 262 261 261 260 258 257 257 257 256 255 255 254 254 253 252 252 252 251 251 250 250 249 250 249 249 249 248 248 248 248 248 248 249 250 250 249 249 249 248 249 251 248 248 250 249 250 251 251 250 252 251 250 250 250 250 250 250 249 250 250
266 266 265 264 264 264 264 264 263 262 263 263 262 262 261 261 261 261 261 261 261 260 260 260 260 260 259 258 257 257 257 256 255 255 254 253 252 252 252 251 252 251 251 251 249 249 248 248 247 248 249 249 249 249 248 248 248 248 249 250 250 250 251 252 248 248 249 249 249 250 249 250 249 249 250 251 249 250 249 249 250 249 248 249 250
265 264 264 264 263 263 263 263 262 263 262 261 261 261 260 260 260 260 260 260 259 259 259 258 258 258 257 257 257 256 256 255 255 254 254 253 252 251 252 251 252 251 251 250 249 248 248 247 248 249 249 248 249 249 249 248 249 249 249 248 251 255 255 254 251 250 251 250 249 249 248 249 248 249 250 249 250 249 250 248 248 249 249 249 249
264 263 263 262 262 262 262 262 262 261 261 261 261 260 260 259 259 259 259 259 258 258 258 257 257 257 257 257 256 256 256 255 255 254 254 254 253 252 252 251 251 251 251 250 249 248 247 247 247 248 248 248 248 249 248 248 248 250 248 250 255 257 256 255 254 253 252 249 250 249 250 250 247 248 249 249 248 249 249 249 249 250 249 248 248
262 262 261 261 261 261 261 261 261 261 261 260 260 260 259 259 258 258 258 258 257 257 257 257 257 257 257 257 256 256 255 255 255 255 255 254 254 253 252 251 251 251 250 249 249 248 248 248 249 249 248 249 249 249 248 249 248 249 252 254 255 256 256 255 254 254 253 251 247 248 249 249 248 249 248 248 247 248 249 249 249 249 248 248 248
Wind_Speed
8 9 9 10 11 11 10 10 10 8 9 9 9 9 8 8 8 8 7 8 9 10 10 9 10 10 10 10 10 10 10 10 8 8 9 9 8 9 9 10 11 9 9 8 6 9 9 9 7 6 6 7 6 6 6 6 6 5 4 5 3 2 3 3 3 3 2 1 3 4 4 5 4 5 6 5 4 4 5 6 5 5 6 6 7
8 7 7 8 10 11 11 9 9 7 8 8 9 8 8 8 8 7 9 8 9 10 10 9 9 10 10 10 10 10 10 11 10 9 10 10 9 7 9 10 11 10 10 10 8 7 8 9 7 6 5 8 7 6 6 6 5 6 3 4 4 3 2 3 3 3 5 0 0 1 3 3 4 3 7 6 6 4 6 6 5 5 7 6 7
9 9 9 9 9 8 9 9 9 10 10 8 9 9 8 8 8 9 9 8 7 8 9 10 10 10 10 10 10 10 11 11 10 10 11 12 12 10 10 11 12 12 11 11 10 9 9 9 8 7 6 8 6 6 5 5 5 5 4 3 3 4 3 3 3 4 4 4 3 3 4 3 6 6 5 6 6 5 6 6 5 5 6 7 7
9 10 9 9 9 8 9 8 10 10 11 10 10 10 9 8 8 9 9 8 9 7 8 9 9 9 10 10 10 10 11 11 10 10 12 13 12 12 11 11 11 12 12 12 11 10 11 10 8 8 8 9 7 6 5 5 5 4 4 3 3 3 3 3 3 3 3 2 3 2 2 5 5 4 5 4 6 6 6 6 4 7 8 7 8
8 9 9 10 9 10 10 9 11 12 12 11 12 11 10 9 8 10 9 9 8 8 8 8 9 10 10 11 11 11 11 11 11 10 9 10 13 13 12 11 11 11 12 12 11 11 11 11 10 9 9 9 7 6 6 6 5 5 5 3 4 3 3 3 3 2 2 4 4 1 0 1 3 3 3 4 5 5 4 6 7 8 8 7 7
8 9 9 10 10 12 11 11 12 13 12 11 12 11 10 10 10 9 9 10 9 9 11 10 11 12 11 11 12 12 11 12 12 12 12 11 11 11 11 12 12 11 11 10 11 10 10 11 11 10 9 10 8 7 7 7 5 5 5 4 4 3 3 3 3 3 3 5 4 5 1 3 4 4 3 4 5 7 6 6 4 6 6 7 7
7 9 10 10 9 11 12 13 12 11 11 10 9 10 11 10 10 10 9 10 11 10 10 11 10 10 11 11 12 12 11 11 11 11 11 11 12 12 11 10 10 9 9 10 9 9 10 11 10 9 9 9 9 9 8 7 6 6 6 5 5 5 5 4 4 4 4 4 4 3 4 4 4 6 3 4 6 6 6 7 7 5 6 8 8
7 7 8 10 11 12 11 10 11 11 9 8 9 10 9 9 10 9 9 10 11 11 11 11 10 10 11 11 11 10 10 10 10 10 11 12 12 11 11 11 11 9 9 9 9 9 9 10 10 9 9 9 9 9 9 8 6 6 5 5 5 5 5 4 4 4 4 4 5 5 4 5 5 4 3 2 4 5 5 6 9 8 6 6 6
9 8 8 11 12 10 8 8 8 9 9 10 10 10 10 9 8 9 10 10 9 10 10 10 10 10 9 10 9 9 10 10 10 11 11 10 10 11 11 11 11 11 10 9 8 9 9 9 8 8 8 9 11 9 8 8 7 6 6 6 6 6 4 4 4 4 4 3 4 4 4 5 6 5 6 5 7 8 4 3 7 7 6 7 6
11 10 11 13 10 8 8 8 9 9 10 12 11 11 11 10 10 10 11 10 10 10 10 9 10 11 11 10 10 9 9 8 11 18 15 14 12 10 10 11 12 12 12 11 9 8 8 8 8 11 12 12 11 10 9 11 11 8 8 7 6 5 5 5 5 5 4 4 6 5 5 6 6 6 6 5 4 4 5 5 7 8 7 8 7
12 12 14 12 9 8 9 10 9 11 11 10 10 10 11 11 11 11 10 10 10 10 10 10 11 10 11 11 11 10 10 9 16 18 13 13 12 11 11 11 11 12 12 12 12 10 8 8 8 10 10 9 9 11 9 9 9 8 9 9 8 8 6 6 6 5 4 5 4 4 5 7 7 4 5 6 4 5 6 6 7 6 7 7 11
13 13 13 9 9 11 11 9 10 11 10 12 11 10 9 10 11 11 10 10 9 8 10 11 10 10 9 10 11 10 10 13 19 18 15 14 13 14 11 10 9 10 11 11 11 10 10 9 7 7 8 8 7 7 8 9 9 8 7 7 8 10 10 8 6 4 4 5 6 6 4 8 5 3 5 4 6 5 6 5 5 6 8 8 6
13 12 11 10 10 11 10 10 10 10 11 10 9 10 11 11 11 12 13 10 9 10 12 11 11 10 10 11 10 9 7 12 17 20 17 18 17 11 9 11 12 10 11 11 12 11 10 9 8 7 7 10 7 6 6 6 8 10 10 10 10 10 11 12 9 6 4 5 6 6 7 5 5 5 3 3 3 5 4 5 5 6 7 8 7
12 12 10 10 11 10 9 10 11 11 9 9 9 11 11 13 11 10 9 9 11 10 9 10 9 9 10 10 10 9 9 13 21 22 24 19 18 15 10 11 10 11 12 11 11 12 12 11 10 9 6 7 6 7 6 6 6 5 6 6 6 7 11 14 13 12 8 7 6 8 9 3 7 4 3 3 5 7 7 8 5 6 7 10 9
10 10 11 10 9 9 11 11 11 9 9 9 10 11 11 10 10 9 10 11 11 11 11 10 10 9 9 9 9 9 9 14 18 19 13 15 18 13 9 8 9 9 10 11 12 13 12 11 10 10 9 8 7 8 7 7 6 6 6 6 6 6 6 7 6 6 7 7 7 9 8 5 7 6 4 4 5 6 6 8 8 8 9 7 6
10 9 10 10 11 11 11 11 10 9 10 10 11 11 10 11 11 8 8 8 7 7 8 8 9 9 8 9 9 10 8 15 17 20 15 18 17 9 9 10 9 9 9 10 10 9 10 10 9 9 8 8 9 13 10 7 6 7 7 5 5 4 5 6 8 9 8 8 7 8 7 7 8 7 6 6 6 7 8 8 4 4 8 10 11
11 12 12 10 11 10 11 11 10 9 10 11 11 11 11 10 8 8 9 8 9 10 10 10 9 10 10 10 10 9 7 14 17 16 15 19 14 8 9 9 9 9 9 10 9 10 9 9 9 8 8 7 9 14 14 11 6 7 7 6 4 3 6 6 8 11 13 13 14 14 15 15 16 16 16 17 12 8 6 7 7 3 6 9 10
11 10 10 8 9 9 9 9 9 9 10 12 12 10 9 7 9 9 11 10 10 10 9 9 8 9 10 10 10 10 8 12 17 16 17 20 11 10 9 9 9 9 7 7 6 7 8 12 9 9 8 7 10 13 14 11 8 7 6 6 5 6 7 6 3 6 11 14 15 16 16 15 14 13 11 12 14 9 3 7 8 6 9 9 10
10 10 9 8 8 8 9 9 9 10 11 11 10 10 11 10 9 8 9 9 9 8 7 7 7 7 7 8 9 8 6 9 15 17 17 17 12 7 7 7 8 7 7 7 6 6 6 8 10 8 8 8 12 12 14 12 7 7 7 5 7 7 9 5 5 5 4 4 5 5 5 7 6 5 6 12 13 11 7 7 6 6 8 8 8
6 5 6 8 8 9 9 10 10 11 11 9 9 10 9 8 10 9 8 7 7 7 7 7 8 7 7 7 8 8 8 8 11 16 17 17 15 9 6 8 9 9 7 8 8 5 6 5 8 11 12 12 11 13 13 14 8 6 6 7 7 11 5 5 6 6 5 5 5 4 6 6 6 6 5 6 7 8 7 7 7 7 7 8 7
6 6 6 7 7 8 8 10 11 9 10 11 10 9 9 10 9 9 9 7 7 7 8 7 7 7 6 7 7 7 7 8 10 17 17 19 17 13 7 7 7 8 8 8 8 8 7 6 5 11 15 14 13 13 13 14 12 8 8 8 10 6 4 4 4 7 4 5 5 6 6 5 5 5 4 5 5 6 7 7 6 6 6 7 7
6 6 7 7 7 7 8 7 9 9 8 8 9 8 7 8 9 10 8 9 10 9 8 7 7 6 6 6 6 7 7 11 9 15 18 19 17 16 9 7 7 8 8 7 7 7 8 7 7 10 16 15 15 15 16 15 18 9 9 12 12 10 6 4 4 5 6 6 6 5 5 5 5 5 5 5 7 7 5 5 3 1 1 1 3
6 7 7 8 8 8 8 9 8 7 8 9 10 9 8 9 8 8 9 9 9 9 9 8 7 7 6 5 6 6 6 7 11 11 17 19 18 17 14 10 13 8 8 9 8 8 6 7 8 12 15 16 16 18 18 19 15 9 12 12 12 12 9 5 5 5 5 5 5 5 4 4 5 5 6 6 5 5 5 3 3 3 2 1 1
6 6 7 7 8 8 8 9 9 9 10 9 9 9 8 8 8 8 8 9 8 8 7 7 7 7 7 6 5 5 6 6 10 14 13 19 17 19 17 16 15 8 7 7 7 7 7 7 7 12 15 15 17 17 17 15 8 10 12 13 12 10 4 3 1 2 3 4 5 5 4 5 5 5 4 2 3 3 3 3 2 2 1 0 2
6 6 6 7 7 7 8 8 8 8 9 10 10 9 10 10 9 7 8 8 8 8 7 7 8 7 6 5 5 6 6 6 7 11 16 17 20 20 19 18 17 14 9 6 7 7 7 10 11 12 12 14 15 15 11 11 12 11 12 12 8 2 2 2 4 3 5 6 5 5 5 4 2 1 4 5 4 4 4 2 3 1 2 1 0
5 5 5 6 7 8 9 7 8 9 9 8 9 9 10 9 9 8 8 8 8 8 8 8 7 7 7 7 7 7 7 6 7 7 9 11 13 18 19 17 16 14 11 7 9 11 11 10 10 10 11 9 7 4 4 3 6 8 9 8 2 2 2 3 3 4 6 5 5 5 5 1 4 3 4 4 4 3 3 2 2 1 1 1 3
5 5 6 6 6 7 9 8 8 8 8 7 7 8 8 8 9 9 9 9 9 8 9 9 8 8 8 8 8 7 7 7 7 6 7 7 7 9 11 11 13 12 9 7 8 7 8 7 7 8 7 9 8 6 6 4 2 1 2 3 4 5 4 4 4 5 6 5 5 3 0 4 4 4 3 3 2 2 3 2 1 2 1 1 1
6 6 6 6 6 6 7 9 9 7 7 7 8 7 7 8 9 9 9 9 9 9 9 9 9 9 9 8 8 7 7 7 8 8 8 8 7 6 6 7 8 7 7 6 6 7 7 7 9 6 6 5 4 3 3 2 4 4 3 3 4 5 6 7 6 2 2 1 0 0 2 2 2 3 3 2 3 2 2 2 2 1 0 2 1
6 6 6 6 6 6 6 7 7 7 7 6 6 6 8 7 6 5 4 6 9 11 10 9 8 8 8 9 9 9 8 9 10 10 10 12 11 9 8 8 6 6 7 9 7 6 7 6 6 6 5 5 4 4 4 4 3 2 4 3 2 2 2 3 3 3 2 4 5 3 0 3 2 3 3 2 2 3 2 2 0 3 1 1 3
7 7 6 6 6 7 7 7 7 7 8 7 7 5 5 7 5 7 6 6 7 6 7 8 8 8 8 8 9 11 12 10 13 18 16 17 17 16 12 12 10 8 11 16 9 7 6 6 6 6 6 5 6 5 6 5 4 3 1 2 2 1 1 2 2 2 1 1 1 1 0 1 1 0 1 1 1 2 3 4 1 1 2 3 4
7 7 7 7 7 7 7 7 7 7 7 8 8 8 7 7 9 9 7 8 9 10 10 9 11 9 7 7 7 8 7 12 18 18 19 18 17 16 16 15 16 16 17 11 7 7 7 7 6 5 6 6 6 6 5 6 4 3 2 1 2 4 4 4 4 2 1 1 1 0 0 1 1 1 2 2 3 2 2 1 3 3 4 4 5
9 8 8 7 9 8 7 8 8 9 8 8 9 9 9 9 7 9 12 11 11 11 11 12 13 12 11 9 7 5 11 16 17 18 18 18 17 17 17 17 17 18 17 14 8 6 7 7 6 6 6 6 6 6 5 4 4 4 5 4 4 4 5 5 5 5 6 5 4 4 2 2 3 3 3 3 3 3 4 3 3 4 3 3 4
10 9 8 9 9 9 8 8 8 9 10 10 9 9 10 10 10 8 8 11 13 12 11 12 13 13 13 12 12 10 9 12 16 17 18 18 18 17 17 17 17 18 17 9 7 7 6 6 6 6 6 6 6 6 5 5 5 5 5 5 5 5 5 5 4 5 5 5 5 4 4 4 3 4 4 4 3 3 3 3 4 4 5 4 4
8 8 9 9 9 8 8 8 9 9 8 8 9 9 8 9 10 10 10 8 8 9 10 11 13 14 14 14 14 15 15 15 16 17 18 18 18 18 17 13 17 17 11 7 7 7 7 7 6 7 6 6 6 6 6 5 5 6 6 6 6 5 4 4 5 4 4 4 4 4 4 4 4 4 4 2 3 4 4 4 4 4 4 6 6
6 7 11 9 8 8 8 8 8 9 9 9 9 9 9 9 9 10 10 10 10 9 7 7 9 10 10 11 14 16 16 17 17 18 19 19 20 20 18 12 11 9 7 5 6 6 7 7 6 6 6 6 6 6 6 5 5 5 6 5 5 5 4 5 5 4 5 4 4 4 4 5 5 4 5 4 3 4 4 4 4 5 5 4 4
7 7 8 8 7 6 6 6 7 7 8 8 8 8 8 9 8 8 7 8 8 9 7 5 5 9 13 12 16 15 17 17 17 18 18 19 20 20 11 8 8 7 7 7 6 6 6 6 6 7 6 6 6 5 5 5 5 6 5 5 5 5 5 5 5 5 4 5 5 4 3 4 5 5 3 4 5 6 5 5 5 4 4 4 4
7 7 8 7 7 6 6 6 6 6 6 7 8 8 8 7 6 8 8 9 8 7 9 8 7 7 7 5 11 15 16 16 16 17 17 18 19 10 5 7 7 7 7 7 7 5 6 5 5 5 6 6 5 5 5 5 4 4 4 4 4 4 4 4 5 4 5 4 4 5 4 4 4 4 5 5 3 5 5 4 3 4 4 5 3
6 7 7 8 8 8 8 7 7 8 8 7 7 8 9 8 9 9 9 9 9 10 10 7 6 9 11 8 6 6 10 14 16 13 13 14 10 6 6 5 6 6 7 5 6 6 6 5 5 6 5 5 5 5 5 4 4 4 3 3 3 5 5 3 2 4 4 4 4 4 4 4 4 4 4 5 6 5 4 5 5 4 2 4 4
5 7 9 11 8 8 8 8 8 8 7 7 7 8 8 8 9 8 8 8 9 8 6 7 7 7 7 6 7 8 10 8 7 7 7 5 5 5 5 5 5 6 6 6 5 6 6 5 4 5 5 5 5 4 5 4 4 4 4 4 3 2 2 2 3 4 4 4 4 4 5 4 4 4 5 5 4 4 5 4 4 5 5 5 5
9 8 8 10 6 7 7 7 8 8 6 8 7 7 8 8 9 9 9 9 9 8 7 8 7 6 6 6 7 7 8 7 7 7 6 6 6 5 5 5 5 6 6 6 5 5 5 5 5 5 5 5 5 5 6 5 4 4 3 4 4 3 3 3 4 4 6 4 4 4 5 5 5 5 4 4 5 4 4 5 4 4 5 4 4
8 8 8 8 9 8 7 7 7 8 8 6 7 6 7 6 6 6 7 8 7 7 7 5 5 5 5 5 10 8 6 7 7 6 5 6 5 5 5 5 5 5 5 6 6 6 6 6 6 6 6 6 5 6 5 5 4 4 3 3 2 3 3 2 3 4 4 4 4 4 5 5 5 6 5 5 5 5 4 4 4 4 4 3 3
9 8 8 7 8 8 8 6 5 6 7 6 8 8 6 6 8 8 8 8 7 7 7 6 5 5 7 13 12 10 6 5 5 5 5 5 5 5 5 5 5 5 6 6 6 6 6 6 6 6 6 6 6 4 5 4 4 4 4 3 4 4 3 3 4 4 4 4 4 5 4 5 6 4 4 5 5 4 5 4 5 4 4 4 3
9 9 8 7 8 8 8 8 8 8 7 7 6 5 6 7 8 7 8 7 8 8 8 8 6 6 7 11 10 9 6 5 5 6 5 5 5 5 5 5 5 5 5 5 5 6 6 6 5 5 5 6 6 6 6 5 5 4 4 4 4 4 4 3 2 3 3 5 4 3 4 4 5 4 5 4 5 6 5 5 4 4 5 4 4
8 7 5 6 6 7 5 6 7 6 6 6 7 5 6 7 7 7 8 8 8 7 7 7 7 7 6 7 7 6 6 6 6 6 6 6 6 6 6 5 6 6 6 6 5 5 6 6 6 4 4 5 4 3 4 3 4 5 4 4 4 4 4 4 5 4 6 5 5 4 5 4 4 4 5 6 5 5 5 5 5 5 4 4 3
7 8 8 8 7 7 6 5 5 6 7 6 6 6 4 6 7 7 7 7 6 6 7 7 7 6 5 6 6 6 6 6 5 5 6 6 6 6 5 5 6 6 6 5 4 4 4 5 6 5 4 3 3 3 1 1 2 3 3 4 4 4 5 6 5 5 6 5 6 5 4 6 5 6 6 6 5 6 5 5 5 5 4 4 4
7 7 6 7 7 5 5 6 4 6 6 6 7 7 6 6 6 7 6 6 6 7 7 6 6 5 5 6 5 4 5 6 6 6 5 6 6 6 6 6 5 5 4 5 4 3 4 4 4 4 5 3 3 3 3 2 1 1 2 2 4 4 4 4 3 5 5 5 6 5 5 5 5 7 7 6 6 6 5 5 4 5 5 5 5
7 7 7 6 7 6 5 5 6 6 6 6 6 7 6 6 6 6 5 6 7 5 7 6 6 6 5 5 5 5 5 6 5 5 5 5 5 6 5 5 6 4 4 4 3 4 3 3 3 4 4 3 3 4 3 3 3 3 2 2 2 2 2 2 3 5 4 4 5 4 5 6 6 6 7 6 5 6 5 6 6 5 5 5 5
7 6 6 6 7 7 7 6 7 7 6 6 7 6 6 6 7 6 6 6 7 6 7 6 6 5 5 5 5 5 5 5 5 5 5 5 4 5 5 4 4 4 3 4 3 3 3 3 3 3 3 2 2 2 2 2 2 3 3 4 4 4 6 5 3 4 4 4 5 5 5 6 6 6 6 6 6 6 6 6 4 4 5 4 5
6 7 6 6 6 6 6 6 5 6 7 7 8 8 6 7 7 6 6 7 7 6 6 6 6 5 5 5 5 5 5 4 5 5 5 4 4 3 5 3 4 4 4 4 3 3 3 3 3 4 4 3 3 4 4 3 4 4 4 4 6 9 9 8 5 5 5 4 5 5 5 6 6 5 6 5 7 6 6 5 4 5 4 4 4
7 6 7 7 6 6 5 6 6 6 5 6 7 7 7 6 7 6 6 7 6 6 5 5 5 5 5 5 4 4 5 5 5 5 5 4 5 4 4 4 4 4 4 4 3 3 3 3 3 3 3 3 4 4 4 4 4 5 4 5 8 11 10 10 9 8 6 4 5 6 6 6 5 6 6 6 6 6 6 6 5 6 5 5 5
6 7 7 7 7 7 7 7 7 6 6 6 6 7 7 6 6 6 6 6 6 5 5 5 5 5 5 4 4 5 5 4 4 4 4 4 4 4 5 5 5 3 3 3 3 3 4 4 4 4 4 4 4 5 4 5 4 5 6 9 11 11 11 9 7 8 9 6 5 5 6 7 6 7 6 6 5 6 8 6 6 5 5 5 5
Wind_Direction
186 189 181 188 184 190 191 194 198 190 187 189 187 188 181 179 178 175 156 178 165 168 170 171 172 174 169 168 168 167 165 166 167 159 154 150 151 153 153 151 146 148 144 143 143 139 138 139 145 145 143 128 129 118 108 104 97 99 103 110 121 132 126 143 178 244 306 104 136 172 182 146 183 192 211 230 240 231 218 227 229 237 244 245 246
190 189 193 194 196 192 190 190 189 186 192 192 190 186 182 182 176 163 177 177 173 171 172 171 175 174 171 172 171 170 170 170 167 160 157 149 152 156 155 153 148 149 149 148 148 141 138 136 139 141 140 128 126 121 125 117 115 118 127 134 158 182 167 143 186 166 240 304 153 101 165 168 189 194 200 226 245 223 229 237 235 229 240 241 241
184 184 189 193 198 196 193 191 182 185 188 192 193 186 184 181 175 177 179 173 175 172 171 171 176 175 173 172 172 173 173 172 171 163 161 156 157 163 163 158 154 153 154 152 147 140 136 138 144 141 133 119 121 123 123 129 127 132 152 155 164 181 187 153 151 218 219 256 209 182 191 195 194 225 220 220 225 213 227 234 229 239 240 236 238
184 185 190 195 188 187 196 195 189 188 191 191 193 188 181 182 178 183 180 171 177 176 172 175 175 176 176 174 174 174 174 174 172 171 163 160 160 162 164 163 159 157 153 150 148 149 147 142 150 142 132 126 134 132 136 138 138 142 152 175 170 178 189 166 166 171 213 210 282 183 215 177 244 240 236 219 208 225 220 241 240 248 248 240 236
189 186 185 190 190 190 192 190 198 198 195 192 194 186 183 180 180 183 177 179 178 172 181 178 179 179 180 178 175 177 179 174 171 169 165 163 163 163 164 162 160 157 155 154 154 151 152 150 150 144 139 135 140 138 145 142 147 152 167 178 173 185 163 169 188 154 183 234 265 283 234 241 221 224 200 203 260 251 249 240 239 242 249 240 236
199 185 185 188 196 195 193 192 199 202 200 195 189 185 181 181 181 185 181 179 178 184 182 184 184 186 184 183 180 179 178 177 173 169 167 164 163 164 163 161 159 155 153 152 153 153 149 148 152 151 147 147 152 149 147 149 154 166 170 179 177 179 179 186 168 190 205 232 225 284 321 270 303 264 234 220 238 268 272 256 255 248 249 260 245
208 194 188 193 198 204 197 199 196 200 201 197 185 183 183 181 180 185 182 182 183 186 189 186 190 186 185 182 183 179 177 177 172 169 166 164 162 163 161 157 152 149 150 150 148 149 149 148 148 152 153 151 152 157 153 156 168 177 177 176 181 178 189 191 186 200 214 235 256 242 266 272 240 274 263 212 227 225 250 289 281 239 240 248 263
216 206 192 199 206 207 205 198 196 196 195 191 186 185 180 180 183 180 177 187 190 190 189 189 187 187 186 186 184 177 174 175 172 169 169 166 163 163 160 153 146 140 139 145 150 148 143 145 152 158 155 155 155 157 155 161 163 175 184 180 180 177 193 193 194 206 220 229 234 254 252 256 277 263 287 251 268 275 234 242 271 282 266 244 225
213 211 203 208 213 205 199 198 195 191 188 190 188 183 181 177 176 180 185 190 190 192 191 189 184 188 188 184 178 175 178 180 176 169 166 167 161 158 157 151 143 140 141 144 145 144 145 148 150 153 153 157 156 149 154 156 162 174 190 178 187 186 194 194 204 210 226 216 255 252 252 261 256 266 268 244 243 255 259 216 259 265 271 286 274
203 207 211 216 210 198 199 197 192 186 189 193 191 184 178 174 176 184 190 191 188 186 189 190 189 190 185 181 179 177 182 184 184 176 168 165 167 159 150 149 149 150 149 148 148 147 143 141 151 153 156 161 156 152 157 173 177 177 179 178 185 185 188 194 209 215 207 221 237 237 255 256 254 250 259 255 253 287 296 284 277 283 293 282 286
206 207 215 216 203 197 198 201 187 192 195 191 190 183 178 174 178 184 188 189 187 186 185 189 194 190 185 181 180 184 186 185 181 180 172 161 153 152 153 157 158 154 153 152 153 153 149 148 151 156 160 163 157 158 160 171 181 173 177 183 182 177 181 197 219 206 204 221 232 229 240 259 259 252 260 273 274 261 264 266 267 284 278 290 293
210 212 215 205 201 201 203 195 195 198 187 193 190 184 175 175 179 183 184 187 188 180 186 193 193 189 186 185 185 189 192 184 179 176 164 156 157 162 161 153 151 155 158 157 154 151 156 157 159 163 172 169 157 162 178 191 197 198 193 189 188 191 191 190 204 203 199 222 244 238 242 255 269 271 273 290 281 281 268 267 267 270 280 278 279
211 215 211 203 204 203 197 197 199 196 196 187 181 180 182 181 181 183 188 184 176 184 189 186 192 191 186 185 186 184 187 174 176 179 167 168 164 142 152 156 160 165 162 159 157 158 158 158 161 175 177 163 155 163 173 194 211 216 218 222 227 224 226 225 214 196 184 212 229 248 228 255 273 257 229 260 289 289 295 289 284 281 275 276 278
210 214 207 206 204 201 195 195 200 197 186 179 177 182 184 191 188 182 174 175 183 184 182 187 187 189 187 184 182 181 185 185 179 183 181 166 152 158 161 163 163 162 162 162 160 163 165 164 165 172 169 164 170 171 175 181 182 201 214 215 217 229 236 241 243 236 215 213 221 241 251 198 250 260 251 291 296 284 288 283 284 278 273 266 268
211 210 208 208 199 197 197 197 198 192 183 177 177 183 188 188 184 181 177 180 182 183 182 184 192 190 188 185 182 181 184 187 183 175 161 160 160 148 157 152 157 161 164 165 167 168 168 167 169 164 165 172 182 177 174 179 174 192 203 212 215 218 220 228 222 220 227 228 225 237 250 236 245 259 258 242 239 246 246 261 260 256 268 279 285
213 208 213 204 201 199 196 196 195 187 179 176 179 183 185 184 181 175 174 179 180 176 184 185 186 186 183 182 185 188 179 177 179 177 165 166 159 151 152 157 162 165 165 169 168 167 164 166 162 160 164 176 185 183 179 166 179 196 207 212 214 217 228 226 219 216 218 220 227 234 241 238 241 243 242 233 239 254 267 274 277 284 284 283 281
212 209 213 202 201 197 194 194 193 182 175 177 183 183 180 178 173 167 171 176 175 180 183 185 183 180 183 186 186 182 176 180 174 167 160 164 159 159 159 160 166 166 171 171 169 163 167 168 160 156 163 179 182 186 185 174 186 198 208 216 220 224 249 250 246 246 242 239 237 239 246 252 261 273 286 301 315 318 315 299 277 259 268 282 285
216 213 211 198 198 193 192 189 184 176 174 184 184 181 173 169 173 170 173 173 179 184 182 178 180 181 180 184 185 181 177 177 170 166 171 172 156 162 169 165 166 166 162 162 154 161 167 165 160 160 167 182 180 186 189 181 191 199 202 214 224 237 252 245 239 242 248 254 258 262 265 271 277 281 286 293 300 302 278 278 284 293 283 281 287
214 210 206 192 186 181 181 180 177 176 182 184 175 171 175 175 169 166 175 177 182 176 173 171 171 175 181 183 181 175 161 177 178 174 170 172 159 167 163 166 162 165 158 153 149 152 161 169 169 167 171 180 187 192 196 187 191 192 201 198 226 234 242 219 214 236 238 244 258 255 267 263 260 249 243 250 258 260 255 260 275 277 281 283 285
208 200 191 184 181 179 177 177 178 178 177 167 172 176 167 160 168 170 171 171 168 165 167 168 170 174 167 169 176 177 164 173 182 172 170 168 162 160 167 165 171 166 164 153 146 159 169 172 184 191 192 194 197 203 207 197 188 195 182 206 219 243 228 197 212 213 224 213 229 220 230 226 229 231 226 226 243 247 245 245 249 252 258 267 275
187 189 180 175 175 175 174 176 172 175 173 174 169 164 166 164 159 162 161 156 153 157 164 162 163 164 164 167 169 173 165 166 178 179 176 179 170 159 171 175 167 163 159 158 165 167 175 183 183 198 207 208 209 211 209 210 205 194 199 211 216 224 157 183 207 203 213 221 230 226 229 224 218 215 218 221 222 225 230 239 239 241 252 261 272
176 173 170 167 166 166 169 171 169 169 163 151 155 158 156 152 158 158 159 159 160 160 159 160 158 154 150 156 162 162 158 164 167 180 180 184 175 167 164 173 160 154 158 168 170 174 180 181 189 199 204 210 212 211 211 213 217 209 210 218 230 237 238 211 208 217 230 229 230 231 220 219 217 216 224 222 222 223 225 224 222 124 11 339 301
169 168 163 162 166 166 165 160 155 151 155 157 153 154 152 150 153 153 154 155 156 155 158 154 151 145 141 152 155 153 151 157 167 179 188 186 182 169 162 158 169 166 168 174 178 180 177 184 191 191 199 205 208 209 213 217 218 216 218 226 233 240 244 230 220 229 230 231 230 235 225 210 216 215 214 223 218 198 186 153 141 140 159 164 198
163 164 167 164 157 158 156 154 151 154 154 152 149 146 151 151 152 159 156 155 154 153 153 146 145 150 155 154 150 151 158 167 183 182 186 188 186 173 169 166 171 171 171 174 172 176 175 180 180 179 190 194 202 208 212 215 206 212 225 233 243 252 245 216 208 228 251 261 260 251 234 213 219 223 212 184 146 98 80 67 60 46 67 51 1
160 164 164 161 155 152 148 150 152 151 153 151 151 151 150 151 152 157 152 152 153 155 156 157 161 160 157 144 143 156 159 168 175 182 183 185 184 180 180 172 175 165 167 165 159 166 162 159 164 173 179 188 197 205 209 212 216 222 230 242 253 229 224 224 242 246 253 251 250 256 262 239 198 127 94 97 97 91 88 70 100 97 76 61 98
161 161 154 152 151 147 146 146 147 149 150 153 152 155 153 157 155 157 158 158 156 155 156 157 158 158 161 163 162 162 164 162 170 174 181 181 186 187 182 179 176 174 169 162 158 151 155 164 165 162 169 174 174 162 167 184 213 225 238 247 199 186 183 200 220 231 248 251 255 258 251 182 104 119 107 106 114 139 134 158 147 279 120 298 326
155 149 151 148 149 151 147 150 146 147 151 148 147 150 154 156 157 160 165 162 161 161 161 162 162 166 169 171 168 167 169 172 173 176 178 178 181 185 183 183 180 177 174 164 159 161 160 150 138 136 129 135 135 130 127 120 110 177 202 197 190 186 195 200 214 233 246 250 253 264 51 96 117 106 132 123 124 137 131 147 160 230 177 242 205
156 155 151 150 155 157 150 146 145 147 149 147 145 148 157 160 161 166 168 166 163 166 164 168 171 173 173 167 167 169 178 182 185 181 179 177 178 176 179 175 179 181 170 156 145 137 125 121 118 111 112 109 121 124 153 173 190 198 207 205 206 211 209 215 223 207 212 194 234 91 92 126 115 127 115 120 139 130 120 133 149 284 232 114 342
150 151 151 149 156 155 148 152 150 145 140 136 136 147 157 158 157 159 178 177 173 167 170 173 174 172 167 168 168 177 180 194 199 182 180 178 173 174 181 180 170 165 154 139 119 108 114 123 129 131 138 146 151 164 180 180 203 193 189 177 148 146 141 130 172 234 275 314 300 313 91 108 119 115 141 142 181 152 151 104 310 146 282 191 217
154 159 157 156 157 152 151 151 145 143 139 132 120 88 93 137 147 154 158 157 153 154 154 170 170 164 169 182 178 176 189 194 172 177 177 179 178 175 172 167 164 149 158 152 136 136 146 148 158 154 157 157 169 177 182 172 162 113 117 161 158 162 147 136 133 139 109 135 124 97 347 12 341 223 178 197 187 139 167 164 216 165 153 233 249
162 163 162 166 163 157 155 152 154 142 138 134 127 122 108 95 93 100 114 139 154 158 156 150 158 165 157 160 167 167 142 153 167 174 174 174 173 170 169 170 166 165 164 138 132 151 156 160 167 165 168 164 170 170 156 139 140 144 188 203 186 179 185 175 192 169 175 200 277 38 86 37 302 311 290 253 208 184 155 160 142 192 199 212 242
171 172 168 161 159 160 158 157 152 144 143 140 137 134 126 118 92 84 92 96 100 116 136 145 146 144 139 137 132 137 152 159 162 165 167 167 166 162 161 161 161 163 154 136 134 157 159 161 164 169 164 160 163 149 143 145 168 177 186 189 203 198 187 199 199 180 193 193 191 181 174 183 219 239 243 246 200 178 160 185 174 194 226 230 230
168 166 162 158 158 158 157 160 157 152 150 147 144 139 137 134 128 119 89 92 100 104 108 119 129 133 134 133 133 138 139 148 154 155 158 158 155 153 152 153 155 155 147 142 151 157 162 164 165 165 162 158 161 158 171 174 184 188 184 187 193 209 184 197 186 178 182 186 177 184 188 195 197 213 222 206 174 173 171 180 205 202 206 222 252
163 163 162 161 159 161 162 161 157 155 152 148 145 141 140 137 138 132 129 125 101 93 102 118 129 132 131 131 132 134 136 140 144 147 149 150 148 146 145 146 152 157 150 147 153 158 158 162 160 160 160 163 172 171 178 184 183 186 193 192 192 180 155 148 141 176 173 189 183 188 177 180 183 188 221 195 175 169 193 217 192 193 216 212 224
157 152 154 158 160 161 160 160 157 153 153 152 150 148 143 142 139 141 144 140 135 132 132 121 123 130 136 137 139 138 137 138 140 142 144 146 148 147 142 144 152 160 156 160 157 163 162 167 171 174 173 176 179 175 178 181 179 182 188 188 182 160 156 161 170 173 180 188 196 201 203 196 199 185 179 183 180 196 208 205 215 202 208 237 243
154 150 154 156 152 152 152 154 154 155 154 151 148 139 139 140 139 137 128 123 127 129 114 113 118 127 130 134 139 140 139 139 140 142 144 148 151 150 148 156 154 163 157 167 166 165 162 165 162 171 171 171 167 166 169 175 183 184 185 172 187 174 163 174 176 176 191 187 204 202 172 168 180 173 152 171 190 200 205 205 212 222 216 219 229
155 154 154 151 147 145 142 141 144 143 139 140 136 134 138 136 133 132 131 131 127 120 113 124 115 108 107 118 140 141 141 142 144 146 150 154 156 150 136 154 156 156 158 164 162 166 159 159 144 142 152 154 149 149 145 161 154 151 143 136 147 151 160 161 181 173 182 189 187 182 171 176 164 169 167 193 212 191 198 199 197 205 206 223 229
155 156 153 143 137 135 136 138 135 133 138 139 138 140 142 142 143 140 138 138 137 137 139 135 134 139 139 141 137 140 143 143 143 145 152 158 157 142 154 151 160 163 159 151 149 150 142 140 133 131 129 127 132 131 137 140 142 151 161 156 145 160 183 178 138 132 148 155 162 162 157 160 163 167 165 177 199 199 208 201 197 217 235 231 219
137 139 140 141 139 140 139 135 137 138 137 140 146 147 149 146 144 141 139 138 140 144 145 146 147 146 144 138 134 142 137 147 155 160 156 147 131 138 138 136 138 134 133 136 130 133 138 140 130 118 123 130 136 141 146 154 144 149 146 139 135 147 169 134 154 163 156 169 170 170 170 172 165 171 173 173 195 192 195 198 195 192 208 229 233
142 142 142 136 124 133 139 139 137 138 145 146 151 151 147 151 151 147 145 144 148 153 154 153 155 148 145 145 147 150 151 149 152 155 143 140 135 134 134 135 132 131 134 131 130 128 130 133 138 138 139 140 145 140 140 142 136 137 126 141 160 177 197 185 185 176 192 186 177 174 164 170 170 164 167 172 192 192 188 204 204 200 202 212 232
137 136 140 139 138 134 131 135 141 145 148 147 150 152 152 142 132 131 131 134 137 142 147 145 132 137 142 148 153 152 147 151 149 147 147 138 132 128 127 125 124 123 123 130 133 129 132 135 137 138 139 140 138 137 131 128 126 123 139 156 152 179 199 184 168 168 170 164 164 164 168 162 157 153 181 212 193 190 197 188 196 198 208 213 211
136 136 136 134 139 135 136 136 134 135 137 143 150 151 146 142 139 139 138 141 141 142 134 124 134 140 156 153 154 143 113 118 116 125 118 116 119 111 104 97 104 120 130 138 137 132 127 126 136 137 141 142 134 136 128 132 140 152 159 165 179 189 178 186 177 166 158 166 167 165 166 166 170 176 186 195 204 198 186 183 186 198 206 213 217
133 132 134 136 138 141 140 138 137 137 140 143 140 128 128 131 134 132 133 135 139 138 135 136 139 146 155 164 154 122 105 119 122 125 123 120 117 110 109 109 103 100 102 102 103 118 124 127 131 141 144 152 153 148 152 168 162 166 172 177 180 178 189 189 176 179 168 162 176 177 172 178 178 181 190 194 188 187 186 187 192 197 208 205 207
117 116 115 111 108 99 106 125 132 130 130 122 119 123 128 125 124 129 131 131 133 132 132 138 142 144 148 145 114 103 116 116 122 124 127 123 123 121 118 111 104 95 88 86 86 98 111 117 115 113 110 119 119 114 124 142 146 154 163 166 174 179 181 183 176 183 176 177 183 179 184 187 191 184 197 199 184 186 195 188 194 201 203 212 207
113 115 114 110 106 110 109 96 102 111 113 114 109 106 106 113 120 119 122 124 122 122 128 133 137 136 124 113 116 117 116 117 117 120 123 128 124 118 112 105 104 105 102 99 93 93 102 116 124 124 121 119 123 128 139 125 136 153 156 152 170 185 194 195 202 193 176 169 181 180 187 185 200 199 203 200 189 188 196 196 195 196 204 209 207
105 104 106 110 109 105 106 106 106 108 113 115 119 113 103 102 104 111 114 114 116 121 122 120 117 108 108 105 103 106 109 108 111 110 113 109 110 105 104 103 103 108 118 126 118 113 125 134 137 141 150 164 156 167 174 185 184 169 167 159 175 193 196 194 183 160 166 171 179 185 188 190 199 200 200 197 197 189 194 198 190 196 199 210 213
87 93 96 102 106 106 104 110 111 112 109 106 104 106 104 101 100 99 95 101 108 109 111 113 112 108 102 103 106 109 109 110 115 115 112 111 105 107 103 105 107 108 112 118 129 137 132 128 133 144 155 167 162 170 180 190 188 199 202 211 203 207 205 190 167 171 176 179 173 178 195 197 201 200 202 194 192 197 190 196 194 201 204 203 206
87 87 90 98 105 109 111 108 107 104 103 101 99 100 99 100 98 98 104 105 104 107 106 101 100 103 103 101 102 107 108 110 105 106 104 103 108 110 116 119 129 142 138 137 148 149 154 162 170 163 169 181 178 196 207 206 210 204 208 209 209 212 222 215 198 197 188 178 180 192 198 206 206 198 197 191 195 190 189 202 199 198 197 202 210
83 90 96 93 95 98 105 106 105 104 107 107 104 100 98 99 98 101 101 101 105 104 112 115 117 113 111 113 115 112 112 110 112 110 113 120 121 125 129 142 150 157 154 170 176 169 183 177 175 180 185 188 193 201 211 213 217 220 217 212 210 213 211 210 200 205 192 178 189 193 202 206 207 207 195 192 196 194 198 197 191 200 201 204 206
80 82 89 89 89 85 83 83 87 92 91 95 100 101 98 99 99 99 100 101 98 101 103 108 114 119 124 125 123 124 119 120 120 125 125 128 129 136 143 158 168 176 167 182 195 186 189 192 192 194 195 197 203 208 209 212 217 216 219 218 227 229 222 209 202 200 197 195 194 199 196 206 208 208 209 196 189 186 191 197 195 193 196 198 207
79 81 80 81 84 84 84 88 87 83 87 94 97 100 101 99 99 99 101 103 109 109 110 111 115 114 116 120 124 125 123 124 125 128 128 137 149 154 161 163 173 185 198 192 206 210 202 195 199 202 205 208 213 217 219 221 221 219 223 229 232 233 230 216 202 210 201 184 194 191 196 201 202 206 209 202 190 188 197 191 193 198 201 204 207